Location: Bocchiglicro
(39.4167°N, 16.7500°E)
Time: 18:20:05
(UTC+00:00)

SL-16 R/B - Pass Details

Date: 07 June 2020
Orbit: 842 x 846 km, 71.0° (Epoch: 06 July)

Event Time Altitude Azimuth Distance (km) Brightness Sun altitude
Exits shadow 02:04:46 12° 261° (W) 2,338 4.0 -13.2°
Maximum altitude 02:08:32 21° 306° (NW) 1,795 3.8 -12.7°
Drops below altitude 10° 02:12:48 10° 355° (N) 2,473 5.2 -12.1°
Sets 02:15:52 0° 11° (NNE) 3,413 6.3 -11.7°
